Home   Weather   Brno   Past weeks

Flag for Czech Republic Past Weather in Brno, Czech Republic — Yesterday and Last 2 Weeks

Now
31 °F

Fog.


Feels Like: 31 °F
Forecast: 38 / 47 °F
Wind: 1 mph from Northeast

Location: Brno / Turany

Current Time: Feb 20, 2017 at 2:56:17 am

Latest Report: Feb 20, 2017 at 2:00 am


Visibility: 4 mi

Pressure: 30.24 "Hg

Humidity: 96%

Dew Point: 30 °F

Location of BrnoLocation

Past Weather in Brno — Graph

°F

Brno Temperature Yesterday

Maximum temperature yesterday: 38 °F (at 3:00 pm)
Minimum temperature yesterday: 30 °F (at 11:00 pm)
Average temperature yesterday: 34 °F

High & Low Weather Summary for the Past Weeks

 TemperatureHumidityPressure
High45 °F (Feb 15, 3:00 pm)100% (Feb 5, 8:00 am)30.66 "Hg (Feb 5, 8:00 am)
Low16 °F (Feb 14, 7:00 am)41% (Feb 15, 3:00 pm)29.72 "Hg (Feb 5, 3:00 am)
Average31 °F82%30.34 "Hg
* Reported Feb 5 1:00 am — Feb 20 1:00 am, Brno, Weather by CustomWeather, © 2017

Note: Actual official high and low records may vary slightly from our data, if they occured in-between our weather recording intervals... More about our weather records

Advertising

Brno Weather History for the Previous 24 Hours

Scroll right to see more
 ConditionsComfort  
Time TempWeatherWind HumidityBarometerVisibility
1:00 am
Mon, Feb 20
31 °FFog.2 mph96%30.23 "Hg4 mi
12:00 am31 °FFog.2 mph96%30.24 "Hg3 mi
11:00 pm
Sun, Feb 19
30 °FFog.1 mph96%30.24 "Hg3 mi
10:00 pm31 °FFog.3 mph96%30.23 "Hg5 mi
9:00 pm31 °FFog.3 mph96%30.24 "Hg5 mi
8:00 pm33 °FFog.3 mph92%30.23 "Hg5 mi
7:00 pm35 °FFog.2 mph93%30.23 "Hg5 mi
6:00 pm36 °FFog.2 mph93%30.23 "Hg5 mi
5:00 pm37 °FPassing clouds.1 mph90%30.24 "Hg6 mi
4:00 pm38 °FFog.1 mph87%30.25 "Hg5 mi
3:00 pm38 °FFog.1 mph86%30.27 "Hg4 mi
2:00 pm36 °FFog.1 mph90%30.29 "Hg3 mi
1:00 pm35 °FFog.1 mph92%30.32 "Hg3 mi
12:00 pm35 °FFog.1 mph92%30.33 "Hg3 mi
11:00 am34 °FFog.1 mph94%30.35 "Hg3 mi
10:00 am34 °FFog.1 mph92%30.35 "Hg4 mi
9:00 am33 °FFog.1 mph96%30.35 "Hg4 mi
8:00 am32 °FFog.1 mph96%30.36 "Hg4 mi
7:00 am31 °FFog.1 mph97%30.36 "Hg4 mi
6:00 am30 °FOvercast.1 mph96%30.35 "Hg12 mi
5:00 am31 °FPassing clouds.1 mph96%30.36 "Hg16 mi
4:00 am32 °FPassing clouds.2 mph96%30.36 "Hg19 mi
3:00 am32 °FPassing clouds.1 mph96%30.36 "Hg22 mi
2:00 am35 °FPassing clouds.1 mph88%30.37 "Hg25 mi
Weather by CustomWeather, © 2017

See weather overviewHow to use our weather pages